This demonstration page uses our WeatherBlox Daily Observations layout. Learn more.

Left ArrowRight Arrow

Hourly Observations for July 28, 2018

Temp ( °F °C ) Dew Point ( °F °C ) Humidity (%) Winds ( mph kmh ) Pressure ( in mb ) Visibility ( mi km ) Precip ( " mm )
12:53 am 00:53 Clear 80 26.7 49 9.4 34 34 E 7 11 29.94 1014 10 16 0.00 0.00
1:53 am 01:53 Clear 78 25.6 50 10 37 37 E 5 7 29.94 1014 10 16 0.00 0.00
2:53 am 02:53 Clear 78 25.6 50 10 37 37 SE 7 11 29.93 1013 10 16 0.00 0.00
3:53 am 03:53 Clear 75 23.9 50 10 41 41 SSE 9 15 29.93 1014 10 16 0.00 0.00
4:53 am 04:53 Clear 74 23.3 49 9.4 41 41 SE 8 13 29.95 1014 10 16 0.00 0.00
5:53 am 05:53 Clear 76 24.4 47 8.3 36 36 SE 8 13 29.95 1014 10 16 0.00 0.00
6:53 am 06:53 Clear 75 23.9 47 8.3 37 37 SE 7 11 29.96 1015 10 16 0.00 0.00
7:53 am 07:53 Sunny 76 24.4 48 8.9 37 37 SE 7 11 29.99 1016 10 16 0.00 0.00
8:53 am 08:53 Sunny 77 25 50 10 39 39 SE 8 13 30.00 1016 10 16 0.00 0.00
9:53 am 09:53 Sunny 80 26.7 53 11.7 39 39 SSE 10 17 30.01 1016 10 16 0.00 0.00
10:53 am 10:53 Sunny 85 29.4 54 12.2 35 35 SSE 10 17 30.00 1016 10 16 0.00 0.00
11:53 am 11:53 Sunny 90 32.2 49 9.4 24 24 S 7 11 29.99 1016 10 16 0.00 0.00
12:53 pm 12:53 Sunny 94 34.4 50 10 22 22 ESE 8 13 29.97 1015 10 16 0.00 0.00
1:53 pm 13:53 Sunny 94 34.4 51 10.6 23 23 undefined N/A 29.94 1014 10 16 0.00 0.00
2:53 pm 14:53 Sunny 96 35.6 52 11.1 23 23 VRB 6 9 29.92 1013 10 16 0.00 0.00
3:53 pm 15:53 Mostly Sunny 97 36.1 52 11.1 22 22 SE 12 19 29.90 1013 10 16 0.00 0.00
4:53 pm 16:53 Mostly Sunny 100 37.8 53 11.7 21 21 VRB 3 6 29.87 1012 10 16 0.00 0.00
5:53 pm 17:53 Mostly Cloudy 98 36.7 53 11.7 22 22 ESE 10 17 29.85 1011 10 16 0.00 0.00
6:53 pm 18:53 Sunny 97 36.1 51 10.6 21 21 ESE 9 15 29.84 1010 10 16 0.00 0.00
7:53 pm 19:53 Sunny 96 35.6 51 10.6 22 22 E 9 15 29.83 1010 10 16 0.00 0.00
8:53 pm 20:53 Clear 92 33.3 49 9.4 23 23 ESE 7 11 29.85 1011 10 16 0.00 0.00
9:53 pm 21:53 Clear 87 30.6 48 8.9 26 26 ESE 6 9 29.87 1011 10 16 0.00 0.00
10:53 pm 22:53 Clear 84 28.9 47 8.3 27 27 ESE 6 9 29.89 1012 10 16 0.00 0.00
11:53 pm 23:53 Clear 82 27.8 46 7.8 28 28 ESE 7 11 29.90 1013 10 16 0.00 0.00

Powered by AerisWeather